TimeMST,TemperatureF,Dew PointF,Humidity,Sea Level PressureIn,VisibilityMPH,Wind Direction,Wind SpeedMPH,Gust SpeedMPH,PrecipitationIn,Events,Conditions,WindDirDegrees,DateUTC
12:15 AM,1.4,-5.8,72,29.73,10.0,NNW,6.9,-,N/A,,Clear,330,2012-12-19 07:15:00
12:35 AM,-0.4,-7.6,72,29.73,10.0,WNW,8.1,-,N/A,,Clear,300,2012-12-19 07:35:00
12:55 AM,-0.4,-7.6,72,29.72,10.0,NW,6.9,-,N/A,,Clear,310,2012-12-19 07:55:00
1:15 AM,-0.4,-5.8,78,29.72,10.0,WNW,11.5,-,N/A,,Clear,300,2012-12-19 08:15:00
1:35 AM,-0.4,-7.6,72,29.74,10.0,WNW,9.2,-,N/A,,Clear,300,2012-12-19 08:35:00
1:55 AM,-0.4,-7.6,72,29.73,10.0,NW,8.1,-,N/A,,Clear,310,2012-12-19 08:55:00
2:15 AM,-0.4,-7.6,72,29.73,10.0,WNW,11.5,-,N/A,,Clear,300,2012-12-19 09:15:00
2:35 AM,-2.2,-9.4,71,29.73,10.0,NW,9.2,-,N/A,,Clear,310,2012-12-19 09:35:00
2:55 AM,-2.2,-9.4,71,29.74,10.0,WNW,6.9,-,N/A,,Clear,290,2012-12-19 09:55:00
3:15 AM,-4.0,-9.4,78,29.74,10.0,WNW,5.8,-,N/A,,Clear,290,2012-12-19 10:15:00
3:35 AM,-2.2,-9.4,71,29.74,10.0,West,6.9,-,N/A,,Clear,280,2012-12-19 10:35:00
3:55 AM,-2.2,-9.4,71,29.74,10.0,West,10.4,-,N/A,,Clear,280,2012-12-19 10:55:00
4:15 AM,-2.2,-7.6,78,29.75,10.0,WNW,15.0,-,N/A,,Clear,300,2012-12-19 11:15:00
4:35 AM,-0.4,-7.6,72,29.75,10.0,WNW,18.4,-,N/A,,Clear,300,2012-12-19 11:35:00
4:55 AM,-0.4,-7.6,72,29.76,10.0,WNW,16.1,-,N/A,,Clear,300,2012-12-19 11:55:00
5:15 AM,-2.2,-7.6,78,29.77,10.0,NW,12.7,-,N/A,,Scattered Clouds,310,2012-12-19 12:15:00
5:35 AM,-4.0,-9.4,78,29.77,10.0,WNW,15.0,-,N/A,,Clear,300,2012-12-19 12:35:00
5:55 AM,-4.0,-9.4,78,29.79,10.0,NW,8.1,-,N/A,,Clear,310,2012-12-19 12:55:00
6:15 AM,-2.2,-9.4,71,29.80,10.0,WNW,11.5,-,N/A,,Clear,290,2012-12-19 13:15:00
6:35 AM,-2.2,-9.4,71,29.81,10.0,WNW,15.0,-,N/A,,Clear,290,2012-12-19 13:35:00
6:55 AM,-2.2,-9.4,71,29.83,10.0,WNW,12.7,-,N/A,,Clear,290,2012-12-19 13:55:00
7:15 AM,-4.0,-11.2,71,29.84,10.0,Calm,Calm,-,N/A,,Clear,0,2012-12-19 14:15:00
7:35 AM,-5.8,-11.2,77,29.85,10.0,West,8.1,-,N/A,,Clear,280,2012-12-19 14:35:00
7:55 AM,-4.0,-9.4,78,29.85,10.0,WNW,11.5,-,N/A,,Clear,290,2012-12-19 14:55:00
8:15 AM,-4.0,-9.4,78,29.87,10.0,WNW,12.7,21.9,N/A,,Clear,290,2012-12-19 15:15:00
8:35 AM,-0.4,-9.4,66,29.88,10.0,WNW,15.0,-,N/A,,Clear,290,2012-12-19 15:35:00
8:55 AM,-0.4,-7.6,72,29.89,10.0,WNW,15.0,-,N/A,,Clear,290,2012-12-19 15:55:00
9:15 AM,1.4,-7.6,66,29.90,10.0,WNW,12.7,-,N/A,,Clear,290,2012-12-19 16:15:00
9:35 AM,1.4,-7.6,66,29.92,10.0,WNW,13.8,-,N/A,,Clear,300,2012-12-19 16:35:00
9:55 AM,3.2,-5.8,66,29.93,10.0,NW,13.8,-,N/A,,Clear,310,2012-12-19 16:55:00
10:15 AM,5.0,-5.8,61,29.93,10.0,NW,15.0,-,N/A,,Clear,310,2012-12-19 17:15:00
10:35 AM,6.8,-4.0,61,29.95,10.0,WNW,10.4,-,N/A,,Clear,300,2012-12-19 17:35:00
10:55 AM,8.6,-2.2,62,29.95,10.0,WNW,16.1,-,N/A,,Clear,300,2012-12-19 17:55:00
11:15 AM,10.4,-0.4,62,29.95,10.0,NW,13.8,-,N/A,,Clear,310,2012-12-19 18:15:00
11:35 AM,12.2,-0.4,57,29.95,10.0,WNW,15.0,-,N/A,,Clear,300,2012-12-19 18:35:00
11:55 AM,12.2,-0.4,57,29.97,10.0,WNW,16.1,-,N/A,,Clear,290,2012-12-19 18:55:00
12:15 PM,12.2,-0.4,57,29.97,10.0,WNW,13.8,21.9,N/A,,Clear,290,2012-12-19 19:15:00
12:35 PM,12.2,1.4,62,29.97,10.0,WNW,17.3,-,N/A,,Clear,300,2012-12-19 19:35:00
12:55 PM,12.2,1.4,62,29.97,10.0,WNW,17.3,-,N/A,,Clear,300,2012-12-19 19:55:00
1:15 PM,12.2,1.4,62,29.98,10.0,NW,13.8,-,N/A,,Clear,310,2012-12-19 20:15:00
1:35 PM,14.0,1.4,57,29.98,10.0,WNW,17.3,-,N/A,,Clear,300,2012-12-19 20:35:00
1:55 PM,14.0,1.4,57,30.00,10.0,NW,16.1,-,N/A,,Clear,310,2012-12-19 20:55:00
2:15 PM,14.0,1.4,57,30.01,10.0,NW,16.1,-,N/A,,Clear,310,2012-12-19 21:15:00
2:35 PM,14.0,-0.4,53,30.01,10.0,NW,16.1,-,N/A,,Clear,310,2012-12-19 21:35:00
2:55 PM,12.2,-0.4,57,30.01,10.0,NW,13.8,-,N/A,,Clear,310,2012-12-19 21:55:00
3:15 PM,12.2,-0.4,57,30.03,10.0,NW,12.7,-,N/A,,Clear,310,2012-12-19 22:15:00
3:35 PM,12.2,-0.4,57,30.03,10.0,NW,12.7,-,N/A,,Clear,310,2012-12-19 22:35:00
3:55 PM,10.4,-0.4,62,30.04,10.0,NW,11.5,-,N/A,,Clear,310,2012-12-19 22:55:00
4:15 PM,10.4,-0.4,62,30.05,10.0,WNW,8.1,-,N/A,,Clear,290,2012-12-19 23:15:00
4:35 PM,8.6,-4.0,57,30.06,10.0,West,8.1,-,N/A,,Clear,270,2012-12-19 23:35:00
4:55 PM,3.2,-4.0,72,30.07,10.0,West,8.1,-,N/A,,Clear,280,2012-12-19 23:55:00
5:15 PM,1.4,-5.8,72,30.08,10.0,WNW,8.1,-,N/A,,Clear,300,2012-12-20 00:15:00
5:35 PM,1.4,-5.8,72,30.09,10.0,WNW,11.5,-,N/A,,Clear,290,2012-12-20 00:35:00
5:55 PM,3.2,-5.8,66,30.09,10.0,WNW,12.7,-,N/A,,Clear,290,2012-12-20 00:55:00
6:15 PM,-0.4,-7.6,72,30.11,10.0,WNW,12.7,-,N/A,,Clear,290,2012-12-20 01:15:00
6:35 PM,-0.4,-7.6,72,30.11,10.0,WNW,12.7,-,N/A,,Clear,300,2012-12-20 01:35:00
6:55 PM,-2.2,-9.4,71,30.12,10.0,NW,10.4,-,N/A,,Clear,310,2012-12-20 01:55:00
7:15 PM,-4.0,-9.4,78,30.13,10.0,West,10.4,-,N/A,,Clear,280,2012-12-20 02:15:00
7:35 PM,-0.4,-7.6,72,30.13,10.0,WNW,11.5,-,N/A,,Clear,290,2012-12-20 02:35:00
7:55 PM,-0.4,-7.6,72,30.13,10.0,NW,13.8,-,N/A,,Clear,310,2012-12-20 02:55:00
8:15 PM,3.2,-4.0,72,30.13,10.0,WNW,15.0,-,N/A,,Clear,290,2012-12-20 03:15:00
8:35 PM,1.4,-4.0,78,30.14,10.0,WNW,17.3,-,N/A,,Clear,300,2012-12-20 03:35:00
8:55 PM,1.4,-5.8,72,30.15,10.0,WNW,11.5,-,N/A,,Clear,290,2012-12-20 03:55:00
9:15 PM,1.4,-5.8,72,30.16,10.0,West,13.8,-,N/A,,Clear,280,2012-12-20 04:15:00
9:35 PM,1.4,-5.8,72,30.17,10.0,WNW,9.2,-,N/A,,Clear,300,2012-12-20 04:35:00
9:55 PM,-2.2,-7.6,78,30.18,10.0,North,6.9,-,N/A,,Clear,10,2012-12-20 04:55:00
10:15 PM,-0.4,-7.6,72,30.18,10.0,North,4.6,-,N/A,,Clear,350,2012-12-20 05:15:00
10:35 PM,-2.2,-7.6,78,30.19,10.0,Calm,Calm,-,N/A,,Clear,0,2012-12-20 05:35:00
11:15 PM,-2.2,-7.6,78,30.21,10.0,NNW,3.5,-,N/A,,Clear,330,2012-12-20 06:15:00
11:35 PM,-4.0,-9.4,78,30.21,10.0,WNW,4.6,-,N/A,,Clear,290,2012-12-20 06:35:00
11:55 PM,-4.0,-9.4,78,30.21,10.0,NNW,9.2,-,N/A,,Clear,330,2012-12-20 06:55:00